User: anonymous   Login
Location: Albany
(35.0000°S, 118.0000°E)
Time: 22:19:08
(UTC-04:00)
Language:

Atlas Centaur 2 - Orbit

View from above orbital plane
View from above orbital plane
View from above satellite
View from above satellite

Ground track
Ground track

The orbit data is extracted from the following two-line orbital elements,

1 00694U 63047A   16146.43675397  .00000601  00000-0  63229-4 0  9994
2 00694  30.3589 137.5752 0589267 268.3707  84.9348 14.01736191628262
Epoch (UTC): 25 May 2016 10:28:55
Eccentricity: 0.0589267
inclination: 30.3589°
perigee height: 459 km
apogee height: 1316 km
right ascension of ascending node: 137.5752°
argument of perigee: 268.3707°
revolutions per day: 14.01736191
mean anomaly at epoch: 84.9348°
orbit number at epoch: 62826

The dashed part of the orbit path shows where the satellite is in the earth's shadow,  

DLR